Jordan Valley, OR

6:53 AM MDT on August 25, 2016 (GMT -0600)
Rome State

Weather History for KREO - October, 2013

Change the Weather History Date:

Tuesday, October 8, 2013

  Actual Average Record
Temperature  
Mean Temperature 43 °F 51 °F  
Max Temperature 55 °F 69 °F 87 °F (2004)
Min Temperature 30 °F 33 °F 24 °F (2012)
Degree Days  
Heating Degree Days 22 14  
Month to date heating degree days 138 104  
Since 1 July heating degree days 288 328  
Cooling Degree Days 0 0  
Month to date cooling degree days 0 0  
Year to date cooling degree days 878 506  
Moisture  
Dew Point 28 °F    
Average Humidity 59    
Maximum Humidity 85    
Minimum Humidity 32    
Precipitation  
Precipitation 0.00 in 0.02 in 0.25 in (1959)
Month to date precipitation 0.04 0.13  
Year to date precipitation 5.14 6.86  
Sea Level Pressure  
Sea Level Pressure 29.96 in    
Wind  
Wind Speed 7 mph (NNE)    
Max Wind Speed 17 mph    
Max Gust Speed 21 mph    
T = Trace of Precipitation, MM = Missing Value Source: NWS Daily Summary

Daily Weather History Graph

Daily Weather History Graph

Search for Another Location

Airport or City:

Trip Planner

Search our weather history database for the weather conditions in past years. The results will help you decide how hot, cold, wet, or windy it might be!

Date:

Astronomy

Oct. 08, 2013 Rise Set
Actual Time 6:56 AM PDT 6:20 PM PDT
Civil Twilight 6:28 AM PDT 6:48 PM PDT
Nautical Twilight 5:55 AM PDT 7:20 PM PDT
Astronomical Twilight 5:23 AM PDT 7:53 PM PDT
Moon 11:00 AM PDT (10/8) 8:56 PM PDT (10/8)
Length of Visible Light 12h 19m
Length of Day
11h 23m
Waxing Crescent, 17% of the Moon is Illuminated
Oct 8
Waxing Crescent
Oct 11
First Quarter
Oct 18
Full
Oct 26
Last Quarter
Nov 3
New

Hourly Weather History & Observations

Time (PDT) Temp. Windchill Dew Point Humidity Pressure Visibility Wind Dir Wind Speed Gust Speed Precip Events Conditions
12:52 AM 43.0 °F 39.5 °F 26.1 °F 51% 29.96 in - NE 5.8 mph - N/A   Unknown
1:52 AM 41.0 °F 38.0 °F 28.0 °F 60% 29.98 in - NNE 4.6 mph - N/A   Unknown
2:52 AM 37.0 °F 34.5 °F 27.0 °F 67% 30.00 in - East 3.5 mph - N/A   Unknown
3:52 AM 34.0 °F 28.0 °F 26.1 °F 73% 30.00 in - South 6.9 mph - N/A   Unknown
4:52 AM 34.0 °F 27.2 °F 26.1 °F 73% 30.02 in - WSW 8.1 mph - N/A   Unknown
5:52 AM 30.9 °F 26.2 °F 26.1 °F 82% 30.04 in - South 4.6 mph - N/A   Unknown
7:52 AM 37.0 °F 31.0 °F 28.9 °F 73% 30.05 in - SW 8.1 mph - N/A   Unknown
8:52 AM 43.0 °F 41.3 °F 28.9 °F 58% 30.04 in - Variable 3.5 mph - N/A   Unknown
9:52 AM 46.0 °F 44.8 °F 28.0 °F 50% 30.03 in - Variable 3.5 mph - N/A   Unknown
10:52 AM 48.0 °F - 28.0 °F 46% 30.01 in - Variable 3.5 mph - N/A   Unknown
11:52 AM 50.0 °F - 28.0 °F 43% 29.99 in - Variable 4.6 mph - N/A   Unknown
12:52 PM 53.1 °F - 28.0 °F 38% 29.96 in - Variable 4.6 mph - N/A   Unknown
1:52 PM 54.0 °F - 26.1 °F 34% 29.94 in - NW 8.1 mph - N/A   Unknown
2:52 PM 53.1 °F - 25.0 °F 34% 29.94 in - Variable 4.6 mph - N/A   Unknown
3:52 PM 53.1 °F - 24.1 °F 32% 29.92 in - NNW 6.9 mph - N/A   Unknown
4:52 PM 52.0 °F - 24.1 °F 34% 29.91 in - North 5.8 mph - N/A   Unknown
5:52 PM 50.0 °F - 27.0 °F 41% 29.91 in - North 8.1 mph - N/A   Unknown
6:52 PM 48.0 °F - 28.0 °F 46% 29.91 in - NE 5.8 mph - N/A   Unknown
7:52 PM 46.0 °F 43.1 °F 28.0 °F 50% 29.90 in - ENE 5.8 mph - N/A   Unknown
8:52 PM 45.0 °F 37.9 °F 30.0 °F 56% 29.88 in - North 16.1 mph - N/A   Unknown
9:52 PM 44.1 °F 38.1 °F 33.1 °F 65% 29.87 in - North 11.5 mph - N/A   Unknown
10:52 PM 43.0 °F 37.2 °F 33.1 °F 68% 29.86 in - NNE 10.4 mph - N/A   Unknown
11:52 PM 41.0 °F 35.8 °F 34.0 °F 76% 29.85 in - North 8.1 mph - N/A   Unknown